Time,TemperatureF,DewpointF,PressureIn,WindDirection,WindDirectionDegrees,WindSpeedMPH,WindSpeedGustMPH,Humidity,HourlyPrecipIn,Conditions,Clouds,dailyrainin,SoftwareType,DateUTC
2013-11-04 00:01:00,27.9,22.5,30.36,ENE,58,5.8,0.0,80,0.00,RA,,0.00,WeatherDisplay:10.37,2013-11-04 05:01:00,
2013-11-04 00:02:00,27.9,22.5,30.36,ENE,70,4.9,4.9,80,0.00,RA,,0.00,WeatherDisplay:10.37,2013-11-04 05:02:00,
2013-11-04 00:07:00,27.7,22.3,30.36,ENE,72,3.5,3.6,80,0.00,RA,,0.00,WeatherDisplay:10.37,2013-11-04 05:07:00,
2013-11-04 00:12:00,27.7,22.3,30.36,ENE,75,5.8,5.8,80,0.00,CLR,,0.00,WeatherDisplay:10.37,2013-11-04 05:12:00,
2013-11-04 00:17:00,27.5,22.1,30.36,East,96,3.5,3.5,80,0.00,CLR,,0.00,WeatherDisplay:10.37,2013-11-04 05:17:00,
2013-11-04 00:22:00,27.5,22.1,30.36,East,86,4.6,4.6,80,0.00,CLR,,0.00,WeatherDisplay:10.37,2013-11-04 05:22:00,
2013-11-04 00:27:00,27.5,22.1,30.36,ESE,103,4.6,4.6,80,0.00,CLR,,0.00,WeatherDisplay:10.37,2013-11-04 05:27:00,
2013-11-04 00:32:00,27.3,22.0,30.36,SE,126,5.8,5.8,80,0.00,CLR,,0.00,WeatherDisplay:10.37,2013-11-04 05:32:00,
2013-11-04 00:37:00,27.3,22.0,30.36,ESE,112,5.8,5.8,80,0.00,CLR,,0.00,WeatherDisplay:10.37,2013-11-04 05:37:00,
2013-11-04 00:42:00,27.3,22.0,30.36,East,92,5.8,5.8,80,0.00,CLR,,0.00,WeatherDisplay:10.37,2013-11-04 05:42:00,
2013-11-04 00:47:00,27.3,22.0,30.36,ESE,106,5.8,5.8,80,0.00,CLR,,0.00,WeatherDisplay:10.37,2013-11-04 05:47:00,
2013-11-04 00:52:00,27.1,21.8,30.36,East,96,5.8,5.8,80,0.00,CLR,,0.00,WeatherDisplay:10.37,2013-11-04 05:52:00,
2013-11-04 00:57:00,27.1,21.8,30.36,ENE,61,8.1,8.1,80,0.00,CLR,,0.00,WeatherDisplay:10.37,2013-11-04 05:57:00,
2013-11-04 01:02:00,27.0,21.6,30.36,ENE,71,5.8,5.8,80,0.00,CLR,,0.00,WeatherDisplay:10.37,2013-11-04 06:02:00,
2013-11-04 01:07:00,27.0,21.6,30.36,ESE,110,5.8,5.8,80,0.00,CLR,,0.00,WeatherDisplay:10.37,2013-11-04 06:07:00,
2013-11-04 01:12:00,27.0,21.6,30.36,ESE,115,8.1,8.1,80,0.00,CLR,,0.00,WeatherDisplay:10.37,2013-11-04 06:12:00,
2013-11-04 01:17:00,26.8,21.4,30.36,East,90,8.1,8.1,80,0.00,CLR,,0.00,WeatherDisplay:10.37,2013-11-04 06:17:00,
2013-11-04 01:22:00,26.8,21.4,30.36,ESE,123,5.8,5.8,80,0.00,CLR,,0.00,WeatherDisplay:10.37,2013-11-04 06:22:00,
2013-11-04 01:27:00,26.6,21.6,30.36,East,79,5.8,5.8,81,0.00,CLR,,0.00,WeatherDisplay:10.37,2013-11-04 06:27:00,
2013-11-04 01:32:00,26.4,21.4,30.36,ENE,74,8.1,8.1,81,0.00,CLR,,0.00,WeatherDisplay:10.37,2013-11-04 06:32:00,
2013-11-04 01:37:00,26.2,21.2,30.39,ENE,75,5.8,5.8,81,0.00,CLR,,0.00,WeatherDisplay:10.37,2013-11-04 06:37:00,
2013-11-04 01:42:00,26.1,21.0,30.39,East,92,3.5,3.5,81,0.00,CLR,,0.00,WeatherDisplay:10.37,2013-11-04 06:42:00,
2013-11-04 01:47:00,26.1,21.0,30.39,East,98,5.8,5.8,81,0.00,CLR,,0.00,WeatherDisplay:10.37,2013-11-04 06:47:00,
2013-11-04 01:52:00,26.1,21.0,30.39,SE,141,5.8,5.8,81,0.00,CLR,,0.00,WeatherDisplay:10.37,2013-11-04 06:52:00,
2013-11-04 01:57:00,25.9,20.6,30.39,ESE,110,10.1,10.1,80,0.00,CLR,,0.00,WeatherDisplay:10.37,2013-11-04 06:57:00,
2013-11-04 02:02:00,25.9,20.6,30.39,ESE,105,7.6,7.6,80,0.00,CLR,,0.00,WeatherDisplay:10.37,2013-11-04 07:02:00,
2013-11-04 02:07:00,25.9,20.6,30.39,SE,126,5.8,5.8,80,0.00,CLR,,0.00,WeatherDisplay:10.37,2013-11-04 07:07:00,
2013-11-04 02:12:00,25.7,20.4,30.39,ESE,108,5.8,5.8,80,0.00,CLR,,0.00,WeatherDisplay:10.37,2013-11-04 07:12:00,
2013-11-04 02:17:00,25.7,20.4,30.39,SSE,157,5.8,5.8,80,0.00,CLR,,0.00,WeatherDisplay:10.37,2013-11-04 07:17:00,
2013-11-04 02:22:00,25.5,20.2,30.39,East,95,8.1,8.1,80,0.00,CLR,,0.00,WeatherDisplay:10.37,2013-11-04 07:22:00,
2013-11-04 02:27:00,25.5,20.2,30.39,SE,128,5.8,5.8,80,0.00,CLR,,0.00,WeatherDisplay:10.37,2013-11-04 07:27:00,
2013-11-04 02:32:00,25.5,20.2,30.39,ESE,123,5.8,5.8,80,0.00,CLR,,0.00,WeatherDisplay:10.37,2013-11-04 07:32:00,
2013-11-04 02:37:00,25.5,20.2,30.42,ESE,104,5.8,5.8,80,0.00,CLR,,0.00,WeatherDisplay:10.37,2013-11-04 07:37:00,
2013-11-04 02:42:00,25.5,20.2,30.42,East,88,5.8,5.8,80,0.00,CLR,,0.00,WeatherDisplay:10.37,2013-11-04 07:42:00,
2013-11-04 02:47:00,25.3,20.0,30.42,SE,133,6.9,6.9,80,0.00,CLR,,0.00,WeatherDisplay:10.37,2013-11-04 07:47:00,
2013-11-04 02:52:00,25.3,20.0,30.42,ESE,116,5.8,5.8,80,0.00,CLR,,0.00,WeatherDisplay:10.37,2013-11-04 07:52:00,
2013-11-04 02:57:00,25.3,20.0,30.42,East,92,8.1,8.1,80,0.00,CLR,,0.00,WeatherDisplay:10.37,2013-11-04 07:57:00,
2013-11-04 03:02:00,25.3,20.0,30.42,East,96,5.8,5.8,80,0.00,CLR,,0.00,WeatherDisplay:10.37,2013-11-04 08:02:00,
2013-11-04 03:07:00,25.3,20.0,30.42,ESE,117,3.6,3.6,80,0.00,CLR,,0.00,WeatherDisplay:10.37,2013-11-04 08:07:00,
2013-11-04 03:12:00,25.2,19.3,30.42,ESE,119,5.8,5.8,78,0.00,CLR,,0.00,WeatherDisplay:10.37,2013-11-04 08:12:00,
2013-11-04 03:17:00,25.2,19.3,30.42,SSE,148,5.8,5.8,78,0.00,CLR,,0.00,WeatherDisplay:10.37,2013-11-04 08:17:00,
2013-11-04 03:22:00,25.0,19.1,30.42,ESE,119,5.8,5.8,78,0.00,CLR,,0.00,WeatherDisplay:10.37,2013-11-04 08:22:00,
2013-11-04 03:27:00,25.0,19.1,30.42,ESE,104,3.5,3.6,78,0.00,CLR,,0.00,WeatherDisplay:10.37,2013-11-04 08:27:00,
2013-11-04 03:32:00,24.8,18.9,30.42,ESE,115,5.8,5.8,78,0.00,CLR,,0.00,WeatherDisplay:10.37,2013-11-04 08:32:00,
2013-11-04 03:37:00,24.6,18.7,30.42,ESE,110,5.8,5.8,78,0.00,CLR,,0.00,WeatherDisplay:10.37,2013-11-04 08:37:00,
2013-11-04 03:42:00,24.4,18.6,30.42,SSW,194,5.8,5.8,78,0.00,CLR,,0.00,WeatherDisplay:10.37,2013-11-04 08:42:00,
2013-11-04 03:47:00,24.4,18.6,30.42,ESE,117,5.8,5.8,78,0.00,CLR,,0.00,WeatherDisplay:10.37,2013-11-04 08:47:00,
2013-11-04 03:52:00,24.3,18.4,30.42,SE,127,5.8,5.8,78,0.00,CLR,,0.00,WeatherDisplay:10.37,2013-11-04 08:52:00,
2013-11-04 03:57:00,24.4,18.6,30.42,SE,129,5.8,5.8,78,0.00,CLR,,0.00,WeatherDisplay:10.37,2013-11-04 08:57:00,
2013-11-04 04:02:00,24.4,18.6,30.42,ESE,116,5.8,5.8,78,0.00,CLR,,0.00,WeatherDisplay:10.37,2013-11-04 09:02:00,
2013-11-04 04:07:00,24.3,18.4,30.42,ESE,111,5.8,5.8,78,0.00,CLR,,0.00,WeatherDisplay:10.37,2013-11-04 09:07:00,
2013-11-04 04:12:00,24.3,18.4,30.42,East,94,6.9,6.9,78,0.00,CLR,,0.00,WeatherDisplay:10.37,2013-11-04 09:12:00,
2013-11-04 04:17:00,24.3,18.4,30.42,East,91,4.6,4.6,78,0.00,CLR,,0.00,WeatherDisplay:10.37,2013-11-04 09:17:00,
2013-11-04 04:22:00,24.1,18.2,30.42,ESE,117,5.8,5.8,78,0.00,CLR,,0.00,WeatherDisplay:10.37,2013-11-04 09:22:00,
2013-11-04 04:27:00,23.9,18.0,30.42,SE,126,5.8,5.8,78,0.00,CLR,,0.00,WeatherDisplay:10.37,2013-11-04 09:27:00,
2013-11-04 04:32:00,23.9,18.0,30.42,ESE,111,5.8,5.8,78,0.00,CLR,,0.00,WeatherDisplay:10.37,2013-11-04 09:32:00,
2013-11-04 04:37:00,24.1,18.2,30.42,ESE,115,5.8,5.8,78,0.00,CLR,,0.00,WeatherDisplay:10.37,2013-11-04 09:37:00,
2013-11-04 04:42:00,24.1,18.2,30.42,East,98,5.8,5.8,78,0.00,CLR,,0.00,WeatherDisplay:10.37,2013-11-04 09:42:00,
2013-11-04 04:47:00,24.1,18.2,30.42,ESE,113,5.8,5.8,78,0.00,CLR,,0.00,WeatherDisplay:10.37,2013-11-04 09:47:00,
2013-11-04 04:52:00,23.9,18.0,30.42,SSE,151,5.4,5.4,78,0.00,CLR,,0.00,WeatherDisplay:10.37,2013-11-04 09:52:00,
2013-11-04 04:57:00,24.1,18.2,30.42,SE,138,5.8,6.3,78,0.00,CLR,,0.00,WeatherDisplay:10.37,2013-11-04 09:57:00,
2013-11-04 05:02:00,24.3,18.4,30.42,NE,54,6.3,6.3,78,0.00,CLR,,0.00,WeatherDisplay:10.37,2013-11-04 10:02:00,
2013-11-04 05:07:00,24.4,18.6,30.42,SE,135,9.2,9.2,78,0.00,CLR,,0.00,WeatherDisplay:10.37,2013-11-04 10:07:00,
2013-11-04 05:12:00,24.6,18.4,30.42,ENE,63,8.1,8.1,77,0.00,CLR,,0.00,WeatherDisplay:10.37,2013-11-04 10:12:00,
2013-11-04 05:18:00,24.6,18.4,30.42,ESE,118,8.1,8.1,77,0.00,CLR,,0.00,WeatherDisplay:10.37,2013-11-04 10:18:00,
2013-11-04 05:23:00,24.8,18.6,30.42,SE,139,8.1,8.1,77,0.00,CLR,,0.00,WeatherDisplay:10.37,2013-11-04 10:23:00,
2013-11-04 05:28:00,24.8,18.6,30.42,ESE,116,9.2,9.2,77,0.00,CLR,,0.00,WeatherDisplay:10.37,2013-11-04 10:28:00,
2013-11-04 05:33:00,25.0,18.5,30.42,SE,134,9.2,9.2,76,0.00,CLR,,0.00,WeatherDisplay:10.37,2013-11-04 10:33:00,
2013-11-04 05:38:00,24.8,18.6,30.42,SSE,153,10.4,10.4,77,0.00,CLR,,0.00,WeatherDisplay:10.37,2013-11-04 10:38:00,
2013-11-04 05:43:00,24.8,18.6,30.42,East,86,3.5,4.0,77,0.00,CLR,,0.00,WeatherDisplay:10.37,2013-11-04 10:43:00,
2013-11-04 05:48:00,24.8,18.6,30.42,SE,145,5.8,5.8,77,0.00,CLR,,0.00,WeatherDisplay:10.37,2013-11-04 10:48:00,
2013-11-04 05:53:00,24.6,18.4,30.42,SE,130,5.4,5.4,77,0.00,CLR,,0.00,WeatherDisplay:10.37,2013-11-04 10:53:00,
2013-11-04 05:58:00,24.4,18.3,30.42,SE,124,8.1,8.1,77,0.00,CLR,,0.00,WeatherDisplay:10.37,2013-11-04 10:58:00,
2013-11-04 06:03:00,24.3,18.1,30.44,SE,130,5.8,5.8,77,0.00,CLR,,0.00,WeatherDisplay:10.37,2013-11-04 11:03:00,
2013-11-04 06:08:00,24.1,17.9,30.44,SSW,202,3.5,3.5,77,0.00,CLR,,0.00,WeatherDisplay:10.37,2013-11-04 11:08:00,
2013-11-04 06:13:00,23.9,17.7,30.44,SE,130,5.8,5.8,77,0.00,CLR,,0.00,WeatherDisplay:10.37,2013-11-04 11:13:00,
2013-11-04 06:14:00,23.9,17.7,30.44,SE,128,4.6,4.6,77,0.00,CLR,,0.00,WeatherDisplay:10.37,2013-11-04 11:14:00,
2013-11-04 06:19:00,23.7,17.6,30.44,SE,146,5.8,5.8,77,0.00,CLR,,0.00,WeatherDisplay:10.37,2013-11-04 11:19:00,
2013-11-04 06:22:00,23.7,17.6,30.44,East,99,3.5,3.5,77,0.00,CLR,,0.00,WeatherDisplay:10.37,2013-11-04 11:22:00,
2013-11-04 06:27:00,23.5,17.4,30.44,SE,146,4.6,4.6,77,0.00,CLR,,0.00,WeatherDisplay:10.37,2013-11-04 11:27:00,
2013-11-04 06:32:00,23.5,17.4,30.44,SE,136,3.6,3.6,77,0.00,CLR,,0.00,WeatherDisplay:10.37,2013-11-04 11:32:00,
2013-11-04 06:37:00,23.4,17.2,30.44,ESE,111,5.8,5.8,77,0.00,CLR,,0.00,WeatherDisplay:10.37,2013-11-04 11:37:00,
2013-11-04 06:42:00,23.5,17.7,30.44,SE,137,6.9,6.9,78,0.00,CLR,,0.00,WeatherDisplay:10.37,2013-11-04 11:42:00,
2013-11-04 06:47:00,23.5,17.7,30.44,ESE,105,5.8,5.8,78,0.00,CLR,,0.00,WeatherDisplay:10.37,2013-11-04 11:47:00,
2013-11-04 06:52:00,23.5,17.7,30.44,SE,137,5.8,5.8,78,0.00,CLR,,0.00,WeatherDisplay:10.37,2013-11-04 11:52:00,
2013-11-04 06:57:00,23.7,17.9,30.44,East,86,8.1,8.1,78,0.00,CLR,,0.00,WeatherDisplay:10.37,2013-11-04 11:57:00,
2013-11-04 07:02:00,23.9,18.0,30.44,ESE,114,8.1,8.1,78,0.00,CLR,,0.00,WeatherDisplay:10.37,2013-11-04 12:02:00,
2013-11-04 07:07:00,23.9,18.0,30.44,ESE,118,8.1,8.1,78,0.00,CLR,,0.00,WeatherDisplay:10.37,2013-11-04 12:07:00,
2013-11-04 07:12:00,24.1,17.9,30.44,ESE,115,9.2,9.2,77,0.00,CLR,,0.00,WeatherDisplay:10.37,2013-11-04 12:12:00,
2013-11-04 07:17:00,24.1,17.9,30.44,SE,145,8.1,8.1,77,0.00,CLR,,0.00,WeatherDisplay:10.37,2013-11-04 12:17:00,
2013-11-04 07:22:00,24.4,18.3,30.44,ESE,110,5.8,5.8,77,0.00,CLR,,0.00,WeatherDisplay:10.37,2013-11-04 12:22:00,
2013-11-04 07:27:00,24.4,18.3,30.44,ESE,123,8.1,8.1,77,0.00,CLR,,0.00,WeatherDisplay:10.37,2013-11-04 12:27:00,
2013-11-04 07:32:00,24.8,18.6,30.44,ESE,112,5.8,5.8,77,0.00,CLR,,0.00,WeatherDisplay:10.37,2013-11-04 12:32:00,
2013-11-04 07:37:00,25.2,18.7,30.44,SE,126,8.1,8.1,76,0.00,CLR,,0.00,WeatherDisplay:10.37,2013-11-04 12:37:00,
2013-11-04 07:42:00,25.5,19.0,30.44,SE,131,8.1,8.1,76,0.00,CLR,,0.00,WeatherDisplay:10.37,2013-11-04 12:42:00,
2013-11-04 07:47:00,25.7,19.2,30.44,ESE,106,8.1,8.1,76,0.00,CLR,,0.00,WeatherDisplay:10.37,2013-11-04 12:47:00,
2013-11-04 07:52:00,25.9,18.7,30.44,ESE,115,8.1,8.1,74,0.00,CLR,,0.00,WeatherDisplay:10.37,2013-11-04 12:52:00,
2013-11-04 07:57:00,26.1,18.9,30.44,ESE,119,8.7,8.7,74,0.00,CLR,,0.00,WeatherDisplay:10.37,2013-11-04 12:57:00,
2013-11-04 08:02:00,26.1,18.9,30.44,ESE,104,8.1,8.1,74,0.00,CLR,,0.00,WeatherDisplay:10.37,2013-11-04 13:02:00,
2013-11-04 08:07:00,26.2,19.1,30.44,SE,124,8.1,8.1,74,0.00,CLR,,0.00,WeatherDisplay:10.37,2013-11-04 13:07:00,
2013-11-04 08:12:00,26.4,19.3,30.44,SE,139,9.2,9.2,74,0.00,CLR,,0.00,WeatherDisplay:10.37,2013-11-04 13:12:00,
2013-11-04 08:17:00,26.6,19.4,30.44,SE,124,3.5,3.5,74,0.00,CLR,,0.00,WeatherDisplay:10.37,2013-11-04 13:17:00,
2013-11-04 08:22:00,26.8,19.3,30.44,ESE,121,9.2,9.2,73,0.00,CLR,,0.00,WeatherDisplay:10.37,2013-11-04 13:22:00,
2013-11-04 08:27:00,26.8,19.3,30.44,SE,126,9.2,9.2,73,0.00,CLR,,0.00,WeatherDisplay:10.37,2013-11-04 13:27:00,
2013-11-04 08:32:00,27.0,19.5,30.44,East,95,10.4,10.4,73,0.00,CLR,,0.00,WeatherDisplay:10.37,2013-11-04 13:32:00,
2013-11-04 08:37:00,27.1,19.6,30.48,SE,139,10.4,10.4,73,0.00,CLR,,0.00,WeatherDisplay:10.37,2013-11-04 13:37:00,
2013-11-04 08:42:00,27.3,19.8,30.48,ESE,111,11.5,11.5,73,0.00,CLR,,0.00,WeatherDisplay:10.37,2013-11-04 13:42:00,
2013-11-04 08:47:00,27.5,20.0,30.48,ESE,102,8.1,8.1,73,0.00,CLR,,0.00,WeatherDisplay:10.37,2013-11-04 13:47:00,
2013-11-04 08:52:00,27.9,20.3,30.48,SE,136,11.5,11.5,73,0.00,CLR,,0.00,WeatherDisplay:10.37,2013-11-04 13:52:00,
2013-11-04 08:57:00,28.2,20.7,30.48,SSE,149,5.8,5.8,73,0.00,CLR,,0.00,WeatherDisplay:10.37,2013-11-04 13:57:00,
2013-11-04 09:02:00,28.6,21.0,30.48,SSE,147,11.5,11.5,73,0.00,CLR,,0.00,WeatherDisplay:10.37,2013-11-04 14:02:00,
2013-11-04 09:07:00,28.8,21.2,30.48,ESE,122,11.5,11.5,73,0.00,CLR,,0.00,WeatherDisplay:10.37,2013-11-04 14:07:00,
2013-11-04 09:12:00,28.6,21.0,30.48,SE,142,12.7,12.7,73,0.00,CLR,,0.00,WeatherDisplay:10.37,2013-11-04 14:12:00,
2013-11-04 09:17:00,28.8,21.2,30.48,SE,127,9.2,9.2,73,0.00,CLR,,0.00,WeatherDisplay:10.37,2013-11-04 14:17:00,
2013-11-04 09:22:00,29.1,21.5,30.44,ESE,112,8.1,8.1,73,0.00,CLR,,0.00,WeatherDisplay:10.37,2013-11-04 14:22:00,
2013-11-04 09:27:00,29.3,21.7,30.44,South,173,5.8,5.8,73,0.00,CLR,,0.00,WeatherDisplay:10.37,2013-11-04 14:27:00,
2013-11-04 09:32:00,29.5,21.9,30.44,ESE,119,9.2,9.2,73,0.00,CLR,,0.00,WeatherDisplay:10.37,2013-11-04 14:32:00,
2013-11-04 09:37:00,29.7,22.1,30.44,SE,134,9.2,9.2,73,0.00,CLR,,0.00,WeatherDisplay:10.37,2013-11-04 14:37:00,
2013-11-04 09:42:00,30.0,22.4,30.44,SE,137,8.3,8.3,73,0.00,CLR,,0.00,WeatherDisplay:10.37,2013-11-04 14:42:00,
2013-11-04 09:47:00,30.2,22.6,30.44,ESE,118,9.2,9.2,73,0.00,CLR,,0.00,WeatherDisplay:10.37,2013-11-04 14:47:00,
2013-11-04 09:52:00,30.4,22.8,30.44,ESE,115,10.4,10.4,73,0.00,CLR,,0.00,WeatherDisplay:10.37,2013-11-04 14:52:00,
2013-11-04 09:57:00,30.6,22.9,30.44,SE,142,8.1,8.1,73,0.00,CLR,,0.00,WeatherDisplay:10.37,2013-11-04 14:57:00,
2013-11-04 10:02:00,31.1,23.5,30.44,SSE,151,8.1,8.1,73,0.00,CLR,,0.00,WeatherDisplay:10.37,2013-11-04 15:02:00,
2013-11-04 10:07:00,31.6,24.0,30.44,SE,129,7.2,7.2,73,0.00,CLR,,0.00,WeatherDisplay:10.37,2013-11-04 15:07:00,
2013-11-04 10:12:00,32.4,24.7,30.44,ESE,109,8.3,8.3,73,0.00,CLR,,0.00,WeatherDisplay:10.37,2013-11-04 15:12:00,
2013-11-04 10:17:00,32.7,25.0,30.44,SE,131,8.3,8.3,73,0.00,CLR,,0.00,WeatherDisplay:10.37,2013-11-04 15:17:00,
2013-11-04 10:22:00,33.1,25.4,30.44,SSW,205,10.4,10.4,73,0.00,CLR,,0.00,WeatherDisplay:10.37,2013-11-04 15:22:00,
2013-11-04 10:27:00,33.4,25.7,30.44,SSW,212,8.1,8.1,73,0.00,CLR,,0.00,WeatherDisplay:10.37,2013-11-04 15:27:00,
2013-11-04 10:32:00,33.4,25.7,30.48,SSE,160,9.2,9.2,73,0.00,CLR,,0.00,WeatherDisplay:10.37,2013-11-04 15:32:00,
2013-11-04 10:37:00,33.4,25.7,30.48,SSE,150,5.8,5.8,73,0.00,CLR,,0.00,WeatherDisplay:10.37,2013-11-04 15:37:00,
2013-11-04 10:42:00,33.3,25.5,30.48,South,180,10.4,10.4,73,0.00,CLR,,0.00,WeatherDisplay:10.37,2013-11-04 15:42:00,
2013-11-04 10:47:00,33.1,25.4,30.44,ESE,106,12.7,12.7,73,0.00,CLR,,0.00,WeatherDisplay:10.37,2013-11-04 15:47:00,
2013-11-04 10:52:00,33.3,25.5,30.44,ENE,57,10.4,10.4,73,0.00,CLR,,0.00,WeatherDisplay:10.37,2013-11-04 15:52:00,
2013-11-04 10:57:00,33.4,25.7,30.44,SE,142,9.2,9.2,73,0.00,CLR,,0.00,WeatherDisplay:10.37,2013-11-04 15:57:00,
2013-11-04 11:02:00,33.6,25.9,30.44,SSW,205,8.1,8.1,73,0.00,CLR,,0.00,WeatherDisplay:10.37,2013-11-04 16:02:00,
2013-11-04 11:07:00,33.8,25.7,30.44,ESE,108,9.2,9.2,72,0.00,CLR,,0.00,WeatherDisplay:10.37,2013-11-04 16:07:00,
2013-11-04 11:12:00,34.0,25.9,30.44,SE,133,10.4,10.4,72,0.00,CLR,,0.00,WeatherDisplay:10.37,2013-11-04 16:12:00,
2013-11-04 11:17:00,34.0,25.9,30.44,SE,146,12.7,12.7,72,0.00,CLR,,0.00,WeatherDisplay:10.37,2013-11-04 16:17:00,
2013-11-04 11:22:00,34.2,26.1,30.44,SSE,150,11.5,11.5,72,0.00,CLR,,0.00,WeatherDisplay:10.37,2013-11-04 16:22:00,
2013-11-04 11:27:00,34.3,26.2,30.44,SE,127,8.1,8.1,72,0.00,CLR,,0.00,WeatherDisplay:10.37,2013-11-04 16:27:00,
2013-11-04 11:32:00,34.5,26.4,30.44,SE,145,8.1,8.1,72,0.00,CLR,,0.00,WeatherDisplay:10.37,2013-11-04 16:32:00,
2013-11-04 11:37:00,34.3,26.2,30.44,SE,130,5.8,5.8,72,0.00,CLR,,0.00,WeatherDisplay:10.37,2013-11-04 16:37:00,
2013-11-04 11:42:00,34.2,26.1,30.44,SE,137,10.4,10.4,72,0.00,CLR,,0.00,WeatherDisplay:10.37,2013-11-04 16:42:00,
2013-11-04 11:47:00,34.0,25.9,30.44,ESE,122,10.4,10.4,72,0.00,CLR,,0.00,WeatherDisplay:10.37,2013-11-04 16:47:00,
2013-11-04 11:52:00,34.0,25.9,30.44,South,173,8.1,8.1,72,0.00,CLR,,0.00,WeatherDisplay:10.37,2013-11-04 16:52:00,
2013-11-04 11:57:00,34.0,25.9,30.44,SE,130,10.4,10.4,72,0.00,CLR,,0.00,WeatherDisplay:10.37,2013-11-04 16:57:00,
2013-11-04 12:02:00,34.0,25.9,30.44,SE,133,6.3,6.3,72,0.00,CLR,,0.00,WeatherDisplay:10.37,2013-11-04 17:02:00,
2013-11-04 12:08:00,34.2,26.1,30.44,SE,146,9.2,9.2,72,0.00,CLR,,0.00,WeatherDisplay:10.37,2013-11-04 17:08:00,
2013-11-04 12:13:00,34.2,26.1,30.44,ENE,77,9.2,9.2,72,0.00,CLR,,0.00,WeatherDisplay:10.37,2013-11-04 17:13:00,
2013-11-04 12:18:00,34.3,26.2,30.42,ESE,123,9.2,9.2,72,0.00,CLR,,0.00,WeatherDisplay:10.37,2013-11-04 17:18:00,
2013-11-04 12:23:00,34.3,26.2,30.42,SE,142,9.2,9.2,72,0.00,CLR,,0.00,WeatherDisplay:10.37,2013-11-04 17:23:00,
2013-11-04 12:28:00,34.0,25.9,30.42,South,189,12.7,12.7,72,0.00,CLR,,0.00,WeatherDisplay:10.37,2013-11-04 17:28:00,
2013-11-04 12:33:00,33.8,25.7,30.42,ESE,116,8.1,8.1,72,0.00,CLR,,0.00,WeatherDisplay:10.37,2013-11-04 17:33:00,
2013-11-04 12:38:00,33.6,25.9,30.42,ESE,113,8.1,8.1,73,0.00,CLR,,0.00,WeatherDisplay:10.37,2013-11-04 17:38:00,
2013-11-04 12:43:00,33.6,25.9,30.42,SE,132,5.8,5.8,73,0.00,CLR,,0.00,WeatherDisplay:10.37,2013-11-04 17:43:00,
2013-11-04 12:48:00,33.6,25.9,30.42,SSE,168,8.1,8.1,73,0.00,CLR,,0.00,WeatherDisplay:10.37,2013-11-04 17:48:00,
2013-11-04 12:53:00,33.6,25.9,30.42,South,173,12.7,12.7,73,0.00,CLR,,0.00,WeatherDisplay:10.37,2013-11-04 17:53:00,
2013-11-04 12:58:00,33.8,25.7,30.42,SSE,154,9.2,9.2,72,0.00,CLR,,0.00,WeatherDisplay:10.37,2013-11-04 17:58:00,
2013-11-04 13:03:00,34.0,25.9,30.42,SSE,160,11.5,11.5,72,0.00,CLR,,0.00,WeatherDisplay:10.37,2013-11-04 18:03:00,
2013-11-04 13:08:00,34.2,26.1,30.42,ESE,119,5.8,5.8,72,0.00,CLR,,0.00,WeatherDisplay:10.37,2013-11-04 18:08:00,
2013-11-04 13:13:00,34.5,26.4,30.42,SSE,151,9.2,9.2,72,0.00,CLR,,0.00,WeatherDisplay:10.37,2013-11-04 18:13:00,
2013-11-04 13:18:00,34.7,26.6,30.42,ESE,115,3.5,3.5,72,0.00,CLR,,0.00,WeatherDisplay:10.37,2013-11-04 18:18:00,
2013-11-04 13:23:00,35.1,26.9,30.42,SE,143,2.7,0.0,72,0.00,CLR,,0.00,WeatherDisplay:10.37,2013-11-04 18:23:00,
2013-11-04 13:28:00,34.9,26.8,30.42,SSE,155,8.1,8.1,72,0.00,CLR,,0.00,WeatherDisplay:10.37,2013-11-04 18:28:00,
2013-11-04 13:33:00,35.1,26.9,30.42,SE,141,9.2,9.2,72,0.00,CLR,,0.00,WeatherDisplay:10.37,2013-11-04 18:33:00,
2013-11-04 13:38:00,35.6,27.5,30.42,SSW,194,6.3,6.3,72,0.00,CLR,,0.00,WeatherDisplay:10.37,2013-11-04 18:38:00,
2013-11-04 13:43:00,35.8,27.6,30.42,SSE,154,10.4,10.4,72,0.00,CLR,,0.00,WeatherDisplay:10.37,2013-11-04 18:43:00,
2013-11-04 13:48:00,35.4,27.3,30.42,SSE,166,5.8,5.8,72,0.00,CLR,,0.00,WeatherDisplay:10.37,2013-11-04 18:48:00,
2013-11-04 13:53:00,35.6,27.5,30.42,SE,132,8.1,8.1,72,0.00,CLR,,0.00,WeatherDisplay:10.37,2013-11-04 18:53:00,
2013-11-04 13:58:00,35.2,27.1,30.42,SE,141,10.9,10.9,72,0.00,CLR,,0.00,WeatherDisplay:10.37,2013-11-04 18:58:00,
2013-11-04 14:03:00,35.2,27.1,30.42,SE,124,10.4,10.4,72,0.00,CLR,,0.00,WeatherDisplay:10.37,2013-11-04 19:03:00,
2013-11-04 14:08:00,35.8,27.6,30.42,SSE,163,8.1,8.1,72,0.00,CLR,,0.00,WeatherDisplay:10.37,2013-11-04 19:08:00,
2013-11-04 14:13:00,36.5,28.3,30.42,SSE,166,15.0,15.0,72,0.00,CLR,,0.00,WeatherDisplay:10.37,2013-11-04 19:13:00,
2013-11-04 14:18:00,36.3,28.2,30.42,South,179,10.4,10.4,72,0.00,CLR,,0.00,WeatherDisplay:10.37,2013-11-04 19:18:00,
2013-11-04 14:23:00,36.0,27.8,30.42,SW,229,8.1,8.1,72,0.00,CLR,,0.00,WeatherDisplay:10.37,2013-11-04 19:23:00,
2013-11-04 14:28:00,36.1,28.0,30.42,East,85,3.5,3.5,72,0.00,CLR,,0.00,WeatherDisplay:10.37,2013-11-04 19:28:00,
2013-11-04 14:33:00,36.9,28.7,30.42,South,169,8.1,8.1,72,0.00,CLR,,0.00,WeatherDisplay:10.37,2013-11-04 19:33:00,
2013-11-04 14:38:00,37.8,29.2,30.42,SW,216,10.4,10.4,71,0.00,CLR,,0.00,WeatherDisplay:10.37,2013-11-04 19:38:00,
2013-11-04 14:43:00,38.5,29.9,30.42,NE,56,5.8,5.8,71,0.00,CLR,,0.00,WeatherDisplay:10.37,2013-11-04 19:43:00,
2013-11-04 14:48:00,38.8,30.2,30.42,SSE,147,7.6,7.6,71,0.00,CLR,,0.00,WeatherDisplay:10.37,2013-11-04 19:48:00,
2013-11-04 14:53:00,38.8,30.2,30.42,ESE,110,8.1,8.1,71,0.00,CLR,,0.00,WeatherDisplay:10.37,2013-11-04 19:53:00,
2013-11-04 14:58:00,38.8,30.2,30.42,ESE,102,10.4,10.4,71,0.00,CLR,,0.00,WeatherDisplay:10.37,2013-11-04 19:58:00,
2013-11-04 15:03:00,38.1,29.5,30.39,ESE,106,5.8,5.8,71,0.00,CLR,,0.00,WeatherDisplay:10.37,2013-11-04 20:03:00,
2013-11-04 15:08:00,37.6,29.0,30.39,ESE,119,11.5,11.5,71,0.00,CLR,,0.00,WeatherDisplay:10.37,2013-11-04 20:08:00,
2013-11-04 15:13:00,37.4,28.9,30.39,South,175,10.4,10.4,71,0.00,CLR,,0.00,WeatherDisplay:10.37,2013-11-04 20:13:00,
2013-11-04 15:18:00,37.2,29.0,30.42,ESE,105,9.2,9.2,72,0.00,CLR,,0.00,WeatherDisplay:10.37,2013-11-04 20:18:00,
2013-11-04 15:23:00,37.2,29.0,30.42,SE,141,10.4,10.4,72,0.00,CLR,,0.00,WeatherDisplay:10.37,2013-11-04 20:23:00,
2013-11-04 15:28:00,37.0,28.8,30.42,SSE,163,5.8,5.8,72,0.00,CLR,,0.00,WeatherDisplay:10.37,2013-11-04 20:28:00,
2013-11-04 15:33:00,37.0,28.8,30.42,South,178,10.4,10.4,72,0.00,CLR,,0.00,WeatherDisplay:10.37,2013-11-04 20:33:00,
2013-11-04 15:38:00,36.9,28.7,30.42,East,87,8.1,8.1,72,0.00,CLR,,0.00,WeatherDisplay:10.37,2013-11-04 20:38:00,
2013-11-04 15:43:00,36.9,28.7,30.42,SSE,147,9.2,9.2,72,0.00,CLR,,0.00,WeatherDisplay:10.37,2013-11-04 20:43:00,
2013-11-04 15:48:00,37.0,28.8,30.42,ESE,123,8.7,8.7,72,0.00,CLR,,0.00,WeatherDisplay:10.37,2013-11-04 20:48:00,
2013-11-04 15:53:00,37.0,28.8,30.42,South,174,10.4,10.4,72,0.00,CLR,,0.00,WeatherDisplay:10.37,2013-11-04 20:53:00,
2013-11-04 15:58:00,36.9,28.7,30.42,SE,130,5.8,5.8,72,0.00,CLR,,0.00,WeatherDisplay:10.37,2013-11-04 20:58:00,
2013-11-04 16:03:00,36.5,28.3,30.42,SSE,147,10.4,10.4,72,0.00,CLR,,0.00,WeatherDisplay:10.37,2013-11-04 21:03:00,
2013-11-04 16:08:00,36.1,28.0,30.42,ESE,114,3.6,3.6,72,0.00,CLR,,0.00,WeatherDisplay:10.37,2013-11-04 21:08:00,
2013-11-04 16:13:00,36.0,27.8,30.42,SE,136,10.5,10.5,72,0.00,CLR,,0.00,WeatherDisplay:10.37,2013-11-04 21:13:00,
2013-11-04 16:18:00,35.8,27.6,30.42,SE,128,9.2,9.2,72,0.00,CLR,,0.00,WeatherDisplay:10.37,2013-11-04 21:18:00,
2013-11-04 16:23:00,35.8,27.6,30.42,SSE,160,8.1,8.1,72,0.00,CLR,,0.00,WeatherDisplay:10.37,2013-11-04 21:23:00,
2013-11-04 16:29:00,35.6,27.5,30.42,SE,135,10.5,10.5,72,0.00,CLR,,0.00,WeatherDisplay:10.37,2013-11-04 21:29:00,
2013-11-04 16:34:00,35.2,27.1,30.39,SSE,148,8.1,8.1,72,0.00,CLR,,0.00,WeatherDisplay:10.37,2013-11-04 21:34:00,
2013-11-04 16:39:00,35.1,26.9,30.39,SE,132,10.4,10.4,72,0.00,CLR,,0.00,WeatherDisplay:10.37,2013-11-04 21:39:00,
2013-11-04 16:44:00,35.1,26.9,30.39,SE,133,10.1,10.1,72,0.00,CLR,,0.00,WeatherDisplay:10.37,2013-11-04 21:44:00,
2013-11-04 16:49:00,34.9,26.8,30.39,SE,132,8.1,8.1,72,0.00,CLR,,0.00,WeatherDisplay:10.37,2013-11-04 21:49:00,
2013-11-04 16:54:00,34.7,26.6,30.39,South,181,5.8,5.8,72,0.00,CLR,,0.00,WeatherDisplay:10.37,2013-11-04 21:54:00,
2013-11-04 16:59:00,34.5,26.4,30.39,SE,143,8.1,8.1,72,0.00,CLR,,0.00,WeatherDisplay:10.37,2013-11-04 21:59:00,
2013-11-04 17:04:00,34.3,26.2,30.42,SE,130,10.9,10.9,72,0.00,CLR,,0.00,WeatherDisplay:10.37,2013-11-04 22:04:00,
2013-11-04 17:09:00,34.3,26.2,30.42,SE,133,12.7,12.7,72,0.00,CLR,,0.00,WeatherDisplay:10.37,2013-11-04 22:09:00,
2013-11-04 17:14:00,34.3,26.2,30.42,SE,136,17.3,17.3,72,0.00,CLR,,0.00,WeatherDisplay:10.37,2013-11-04 22:14:00,
2013-11-04 17:19:00,34.3,26.2,30.39,SSE,161,10.4,10.4,72,0.00,CLR,,0.00,WeatherDisplay:10.37,2013-11-04 22:19:00,
2013-11-04 17:24:00,34.2,26.1,30.39,South,186,9.2,9.2,72,0.00,CLR,,0.00,WeatherDisplay:10.37,2013-11-04 22:24:00,
2013-11-04 17:29:00,34.2,26.1,30.39,SE,124,9.2,9.2,72,0.00,CLR,,0.00,WeatherDisplay:10.37,2013-11-04 22:29:00,
2013-11-04 17:34:00,34.0,25.9,30.39,SE,139,10.4,10.4,72,0.00,CLR,,0.00,WeatherDisplay:10.37,2013-11-04 22:34:00,
2013-11-04 17:39:00,33.8,25.7,30.39,SE,128,10.4,10.4,72,0.00,CLR,,0.00,WeatherDisplay:10.37,2013-11-04 22:39:00,
2013-11-04 17:44:00,33.6,25.9,30.39,SE,144,8.1,8.1,73,0.00,CLR,,0.00,WeatherDisplay:10.37,2013-11-04 22:44:00,
2013-11-04 17:49:00,33.4,25.7,30.39,SSE,159,9.2,9.2,73,0.00,CLR,,0.00,WeatherDisplay:10.37,2013-11-04 22:49:00,
2013-11-04 17:54:00,33.3,25.5,30.39,SE,126,11.5,11.5,73,0.00,CLR,,0.00,WeatherDisplay:10.37,2013-11-04 22:54:00,
2013-11-04 17:59:00,33.4,25.7,30.39,SE,137,5.8,5.8,73,0.00,CLR,,0.00,WeatherDisplay:10.37,2013-11-04 22:59:00,
2013-11-04 18:04:00,33.4,25.7,30.39,SSW,211,10.4,10.4,73,0.00,CLR,,0.00,WeatherDisplay:10.37,2013-11-04 23:04:00,
2013-11-04 18:09:00,33.3,25.5,30.39,SE,143,8.1,8.1,73,0.00,CLR,,0.00,WeatherDisplay:10.37,2013-11-04 23:09:00,
2013-11-04 18:14:00,33.3,25.5,30.39,SSW,192,8.1,8.1,73,0.00,CLR,,0.00,WeatherDisplay:10.37,2013-11-04 23:14:00,
2013-11-04 18:19:00,33.1,25.4,30.42,SSW,201,8.1,8.1,73,0.00,CLR,,0.00,WeatherDisplay:10.37,2013-11-04 23:19:00,
2013-11-04 18:24:00,32.9,25.2,30.42,SW,234,8.1,8.1,73,0.00,CLR,,0.00,WeatherDisplay:10.37,2013-11-04 23:24:00,
2013-11-04 18:29:00,32.7,25.0,30.42,ESE,121,3.5,3.5,73,0.00,CLR,,0.00,WeatherDisplay:10.37,2013-11-04 23:29:00,
2013-11-04 18:34:00,32.5,24.8,30.42,South,187,5.8,5.8,73,0.00,CLR,,0.00,WeatherDisplay:10.37,2013-11-04 23:34:00,
2013-11-04 18:39:00,32.5,24.8,30.42,SSW,201,5.8,5.8,73,0.00,CLR,,0.00,WeatherDisplay:10.37,2013-11-04 23:39:00,
2013-11-04 18:44:00,32.2,24.5,30.42,South,170,5.8,5.8,73,0.00,CLR,,0.00,WeatherDisplay:10.37,2013-11-04 23:44:00,
2013-11-04 18:49:00,32.0,24.3,30.42,South,189,5.8,5.8,73,0.00,CLR,,0.00,WeatherDisplay:10.37,2013-11-04 23:49:00,
2013-11-04 18:54:00,31.8,24.1,30.42,SSE,167,8.1,8.1,73,0.00,CLR,,0.00,WeatherDisplay:10.37,2013-11-04 23:54:00,
2013-11-04 18:59:00,31.8,24.1,30.42,SSW,193,4.9,4.9,73,0.00,CLR,,0.00,WeatherDisplay:10.37,2013-11-04 23:59:00,
2013-11-04 19:04:00,31.8,24.1,30.42,SE,142,8.1,8.1,73,0.00,CLR,,0.00,WeatherDisplay:10.37,2013-11-05 00:04:00,
2013-11-04 19:09:00,31.8,24.1,30.42,SSE,166,8.1,8.1,73,0.00,CLR,,0.00,WeatherDisplay:10.37,2013-11-05 00:09:00,
2013-11-04 19:14:00,32.0,24.3,30.42,SSW,202,8.3,8.3,73,0.00,CLR,,0.00,WeatherDisplay:10.37,2013-11-05 00:14:00,
2013-11-04 19:19:00,32.4,24.7,30.44,SSW,196,5.8,5.8,73,0.00,CLR,,0.00,WeatherDisplay:10.37,2013-11-05 00:19:00,
2013-11-04 19:24:00,32.5,24.8,30.44,South,184,8.1,8.1,73,0.00,CLR,,0.00,WeatherDisplay:10.37,2013-11-05 00:24:00,
2013-11-04 19:29:00,32.5,24.8,30.44,SSW,206,4.6,4.6,73,0.00,CLR,,0.00,WeatherDisplay:10.37,2013-11-05 00:29:00,
2013-11-04 19:34:00,32.4,24.7,30.44,SSW,193,5.8,5.8,73,0.00,CLR,,0.00,WeatherDisplay:10.37,2013-11-05 00:34:00,
2013-11-04 19:39:00,32.2,24.5,30.44,South,182,5.8,5.8,73,0.00,CLR,,0.00,WeatherDisplay:10.37,2013-11-05 00:39:00,
2013-11-04 19:44:00,32.0,24.3,30.44,SSW,195,3.5,3.5,73,0.00,CLR,,0.00,WeatherDisplay:10.37,2013-11-05 00:44:00,
2013-11-04 19:49:00,31.8,24.1,30.44,SE,135,5.8,5.8,73,0.00,CLR,,0.00,WeatherDisplay:10.37,2013-11-05 00:49:00,
2013-11-04 19:54:00,31.8,24.1,30.44,SE,144,5.8,5.8,73,0.00,CLR,,0.00,WeatherDisplay:10.37,2013-11-05 00:54:00,
2013-11-04 19:59:00,31.6,24.0,30.44,SSE,154,6.3,6.3,73,0.00,CLR,,0.00,WeatherDisplay:10.37,2013-11-05 00:59:00,
2013-11-04 20:04:00,31.6,24.0,30.44,SE,131,5.8,5.8,73,0.00,CLR,,0.00,WeatherDisplay:10.37,2013-11-05 01:04:00,
2013-11-04 20:09:00,31.8,24.1,30.44,SSE,165,5.8,5.8,73,0.00,CLR,,0.00,WeatherDisplay:10.37,2013-11-05 01:09:00,
2013-11-04 20:14:00,31.8,24.1,30.44,SE,136,10.1,10.1,73,0.00,CLR,,0.00,WeatherDisplay:10.37,2013-11-05 01:14:00,
2013-11-04 20:19:00,32.0,24.3,30.42,SE,142,8.1,8.1,73,0.00,CLR,,0.00,WeatherDisplay:10.37,2013-11-05 01:19:00,
2013-11-04 20:24:00,32.2,24.5,30.42,SSW,198,15.0,15.0,73,0.00,CLR,,0.00,WeatherDisplay:10.37,2013-11-05 01:24:00,
2013-11-04 20:29:00,32.2,24.5,30.42,SE,144,5.8,5.8,73,0.00,CLR,,0.00,WeatherDisplay:10.37,2013-11-05 01:29:00,
2013-11-04 20:34:00,32.2,24.5,30.42,SE,139,9.2,9.2,73,0.00,CLR,,0.00,WeatherDisplay:10.37,2013-11-05 01:34:00,
2013-11-04 20:39:00,32.2,24.5,30.42,SE,129,6.7,6.7,73,0.00,CLR,,0.00,WeatherDisplay:10.37,2013-11-05 01:39:00,
2013-11-04 20:44:00,32.2,24.5,30.42,SE,143,10.4,10.4,73,0.00,CLR,,0.00,WeatherDisplay:10.37,2013-11-05 01:44:00,
2013-11-04 20:49:00,32.2,24.5,30.42,SE,141,6.3,6.3,73,0.00,CLR,,0.00,WeatherDisplay:10.37,2013-11-05 01:49:00,
2013-11-04 20:54:00,32.2,24.5,30.42,SSE,147,3.5,3.5,73,0.00,CLR,,0.00,WeatherDisplay:10.37,2013-11-05 01:54:00,
2013-11-04 20:59:00,32.2,24.5,30.42,SE,134,5.8,5.8,73,0.00,CLR,,0.00,WeatherDisplay:10.37,2013-11-05 01:59:00,
2013-11-04 21:04:00,32.2,24.5,30.42,South,182,5.8,5.8,73,0.00,CLR,,0.00,WeatherDisplay:10.37,2013-11-05 02:04:00,
2013-11-04 21:09:00,32.2,24.5,30.42,ESE,109,6.9,6.9,73,0.00,CLR,,0.00,WeatherDisplay:10.37,2013-11-05 02:09:00,
2013-11-04 21:14:00,32.0,24.3,30.42,East,99,8.1,8.1,73,0.00,CLR,,0.00,WeatherDisplay:10.37,2013-11-05 02:14:00,
2013-11-04 21:19:00,32.0,24.3,30.42,South,180,8.1,8.1,73,0.00,CLR,,0.00,WeatherDisplay:10.37,2013-11-05 02:19:00,
2013-11-04 21:24:00,32.0,24.3,30.42,South,175,8.3,8.3,73,0.00,CLR,,0.00,WeatherDisplay:10.37,2013-11-05 02:24:00,
2013-11-04 21:29:00,32.2,24.5,30.42,SSE,155,5.8,5.8,73,0.00,CLR,,0.00,WeatherDisplay:10.37,2013-11-05 02:29:00,
2013-11-04 21:34:00,32.2,24.5,30.42,SE,126,8.1,8.1,73,0.00,CLR,,0.00,WeatherDisplay:10.37,2013-11-05 02:34:00,
2013-11-04 21:39:00,32.2,24.5,30.42,South,171,8.1,8.1,73,0.00,CLR,,0.00,WeatherDisplay:10.37,2013-11-05 02:39:00,
2013-11-04 21:44:00,32.2,24.5,30.42,SSE,153,3.5,0.0,73,0.00,CLR,,0.00,WeatherDisplay:10.37,2013-11-05 02:44:00,
2013-11-04 21:49:00,32.2,24.5,30.42,South,171,6.9,6.9,73,0.00,CLR,,0.00,WeatherDisplay:10.37,2013-11-05 02:49:00,
2013-11-04 21:54:00,32.2,24.5,30.42,South,178,9.2,9.2,73,0.00,CLR,,0.00,WeatherDisplay:10.37,2013-11-05 02:54:00,
2013-11-04 21:59:00,32.4,24.7,30.42,SE,138,8.1,8.1,73,0.00,CLR,,0.00,WeatherDisplay:10.37,2013-11-05 02:59:00,
2013-11-04 22:04:00,32.5,24.8,30.42,SSW,197,7.6,7.6,73,0.00,CLR,,0.00,WeatherDisplay:10.37,2013-11-05 03:04:00,
2013-11-04 22:09:00,32.5,24.8,30.42,ESE,116,8.1,8.1,73,0.00,CLR,,0.00,WeatherDisplay:10.37,2013-11-05 03:09:00,
2013-11-04 22:14:00,32.4,24.7,30.42,SSW,209,5.8,5.8,73,0.00,CLR,,0.00,WeatherDisplay:10.37,2013-11-05 03:14:00,
2013-11-04 22:19:00,32.2,24.5,30.42,South,190,5.8,5.8,73,0.00,CLR,,0.00,WeatherDisplay:10.37,2013-11-05 03:19:00,
2013-11-04 22:24:00,32.2,24.5,30.42,SSW,209,3.5,3.5,73,0.00,CLR,,0.00,WeatherDisplay:10.37,2013-11-05 03:24:00,
2013-11-04 22:29:00,32.2,24.5,30.42,SSW,201,5.4,5.4,73,0.00,CLR,,0.00,WeatherDisplay:10.37,2013-11-05 03:29:00,
2013-11-04 22:34:00,32.2,24.5,30.42,SSE,168,4.9,4.9,73,0.00,CLR,,0.00,WeatherDisplay:10.37,2013-11-05 03:34:00,
2013-11-04 22:39:00,32.2,24.5,30.42,SSE,165,5.8,5.8,73,0.00,CLR,,0.00,WeatherDisplay:10.37,2013-11-05 03:39:00,
2013-11-04 22:44:00,32.2,24.5,30.42,South,175,5.8,5.8,73,0.00,CLR,,0.00,WeatherDisplay:10.37,2013-11-05 03:44:00,
2013-11-04 22:50:00,32.0,24.3,30.42,SSE,148,5.8,5.8,73,0.00,CLR,,0.00,WeatherDisplay:10.37,2013-11-05 03:50:00,
2013-11-04 22:55:00,32.0,24.3,30.42,South,184,5.8,5.8,73,0.00,CLR,,0.00,WeatherDisplay:10.37,2013-11-05 03:55:00,
2013-11-04 23:00:00,32.0,24.3,30.42,SSE,165,10.4,10.4,73,0.00,CLR,,0.00,WeatherDisplay:10.37,2013-11-05 04:00:00,
2013-11-04 23:05:00,32.0,24.3,30.42,South,172,9.2,9.2,73,0.00,CLR,,0.00,WeatherDisplay:10.37,2013-11-05 04:05:00,
2013-11-04 23:10:00,32.2,24.5,30.42,SSW,201,5.8,5.8,73,0.00,CLR,,0.00,WeatherDisplay:10.37,2013-11-05 04:10:00,
2013-11-04 23:15:00,32.2,24.5,30.42,South,189,8.1,8.1,73,0.00,CLR,,0.00,WeatherDisplay:10.37,2013-11-05 04:15:00,
2013-11-04 23:20:00,32.4,24.7,30.42,SE,140,10.4,10.4,73,0.00,CLR,,0.00,WeatherDisplay:10.37,2013-11-05 04:20:00,
2013-11-04 23:25:00,32.5,24.8,30.42,WNW,286,8.1,8.1,73,0.00,CLR,,0.00,WeatherDisplay:10.37,2013-11-05 04:25:00,
2013-11-04 23:30:00,32.5,24.8,30.42,SSW,206,5.8,5.8,73,0.00,CLR,,0.00,WeatherDisplay:10.37,2013-11-05 04:30:00,
2013-11-04 23:35:00,32.5,24.8,30.42,SW,225,3.6,3.6,73,0.00,CLR,,0.00,WeatherDisplay:10.37,2013-11-05 04:35:00,
2013-11-04 23:40:00,32.2,24.5,30.42,SSW,202,5.8,5.8,73,0.00,CLR,,0.00,WeatherDisplay:10.37,2013-11-05 04:40:00,
2013-11-04 23:45:00,32.2,24.5,30.42,SSW,201,3.5,3.5,73,0.00,CLR,,0.00,WeatherDisplay:10.37,2013-11-05 04:45:00,
2013-11-04 23:50:00,32.0,24.3,30.42,SSW,201,0.0,2.2,73,0.00,CLR,,0.00,WeatherDisplay:10.37,2013-11-05 04:50:00,
2013-11-04 23:55:00,31.6,24.0,30.42,SSW,209,4.9,4.9,73,0.00,CLR,,0.00,WeatherDisplay:10.37,2013-11-05 04:55:00,